CST,Max TemperatureF,Mean TemperatureF,Min TemperatureF,Max Dew PointF,MeanDew PointF,Min DewpointF,Max Humidity, Mean Humidity, Min Humidity, Max Sea Level PressureIn, Mean Sea Level PressureIn, Min Sea Level PressureIn, Max VisibilityMiles, Mean VisibilityMiles, Min VisibilityMiles, Max Wind SpeedMPH, Mean Wind SpeedMPH, Max Gust SpeedMPH,PrecipitationIn, CloudCover, Events, WindDirDegrees
2014-1-1,33,20,8,25,12,1,86,73,63,30.39,30.12,29.90,10,8,1,28,12,33,0.00,4,,7
2014-1-2,39,21,3,27,12,-2,86,75,60,30.39,30.33,30.25,10,10,10,10,7,,0.00,0,,221
2014-1-3,44,32,21,28,22,16,86,68,53,30.24,29.89,29.59,10,10,10,24,17,33,0.00,0,,178
2014-1-4,35,27,19,27,19,9,86,74,59,30.11,29.86,29.57,10,8,1,30,14,36,0.00,5,,11
2014-1-5,19,12,3,9,-1,-8,73,57,48,30.55,30.33,30.08,10,10,4,24,18,30,0.00,4,,1
2014-1-6,19,6,-7,3,-6,-17,73,60,44,30.56,30.46,30.26,10,10,10,15,9,,0.00,1,,280
2014-1-7,37,24,10,27,17,3,80,69,56,30.24,30.08,30.02,10,10,10,17,9,20,0.00,0,,198
2014-1-8,33,27,21,23,20,14,80,72,60,30.27,30.15,30.01,10,10,10,16,8,18,0.00,4,,62
2014-1-9,33,24,15,28,21,10,87,79,73,30.24,30.06,29.84,10,7,3,18,7,20,0.00,6,,153
2014-1-10,46,40,33,32,30,25,93,77,43,29.82,29.66,29.55,10,6,0,24,13,31,0.03,6,,283
2014-1-11,53,42,30,30,25,21,80,58,35,29.98,29.88,29.75,10,10,10,18,12,24,0.03,0,,270
2014-1-12,53,43,33,34,27,19,70,53,41,29.78,29.61,29.46,10,10,10,23,11,29,0.00,1,,255
2014-1-13,53,40,28,25,21,19,69,49,26,29.99,29.89,29.78,10,10,10,21,13,28,0.00,0,,281
2014-1-14,51,40,28,28,20,10,69,48,25,30.32,30.15,29.85,10,10,10,28,15,34,0.00,3,,325
2014-1-15,55,40,24,27,23,18,80,58,33,30.32,30.09,29.86,10,10,10,16,10,20,0.00,3,,254
2014-1-16,51,40,28,25,16,7,64,42,19,30.23,30.05,29.90,10,10,10,33,15,43,0.00,1,,320
2014-1-17,46,32,19,25,15,10,74,51,25,30.25,30.14,29.95,10,10,10,15,9,17,0.00,1,,263
2014-1-18,51,38,24,23,20,18,74,47,28,30.17,30.02,29.89,10,10,10,34,15,46,0.00,0,,307
2014-1-19,69,46,24,25,20,16,74,51,16,30.14,29.97,29.86,10,10,10,17,9,23,0.00,2,,253
2014-1-20,53,38,24,25,18,7,69,48,24,30.43,30.09,29.86,10,10,10,24,10,30,0.00,0,,343
2014-1-21,37,22,8,14,6,-2,68,51,35,30.48,30.27,30.04,10,10,10,24,12,28,0.00,0,,222
2014-1-22,42,28,12,23,15,-8,80,57,41,30.50,30.21,30.08,10,10,10,28,11,36,0.00,2,,1
2014-1-23,19,12,6,-4,-9,-13,61,42,28,30.81,30.68,30.50,10,10,10,22,15,30,0.00,2,,348
2014-1-24,59,34,8,23,12,-2,73,47,23,30.59,30.18,29.95,10,10,10,22,13,28,0.00,2,,255
2014-1-25,57,44,30,34,26,21,69,50,38,30.10,29.99,29.83,10,10,10,20,12,25,0.00,4,,289
2014-1-26,59,41,21,28,22,-4,70,47,27,30.28,29.85,29.71,10,10,3,48,12,56,0.00,2,,323
2014-1-27,21,16,12,-6,-8,-9,41,34,30,30.45,30.39,30.29,10,10,10,26,15,32,0.00,6,,15
2014-1-28,28,19,10,10,3,-4,79,55,31,30.42,30.34,30.23,10,10,10,16,7,21,0.00,4,,260
2014-1-29,46,28,10,18,11,3,79,52,29,30.23,29.98,29.67,10,10,10,28,12,33,0.00,0,,204
2014-1-30,50,39,28,28,15,9,52,42,30,29.93,29.72,29.51,10,10,10,29,18,36,0.00,4,,42
2014-1-31,28,24,19,18,13,9,86,66,51,30.01,29.92,29.84,10,9,1,20,14,25,0.00,7,,48